User: anonymous   Login
Location: Caltech
(34.1382°N, 118.1253°W)
Time: 20:38:16
(UTC-07:00)
Language:

Iridium 49 - Orbit

View from above orbital plane
View from above orbital plane
View from above satellite
View from above satellite

Ground track
Ground track

The orbit data is extracted from the following two-line orbital elements,

1 25108U 97082E   16269.34321709  .00000203  00000-0  65454-4 0  9998
2 25108  86.4006   6.1373 0002279  98.7837 322.3152 14.34225704982418
Epoch (UTC): 25 September 2016 08:14:13
Eccentricity: 0.0002279
inclination: 86.4006°
perigee height: 776 km
apogee height: 779 km
right ascension of ascending node: 6.1373°
argument of perigee: 98.7837°
revolutions per day: 14.34225704
mean anomaly at epoch: 322.3152°
orbit number at epoch: 98241

The dashed part of the orbit path shows where the satellite is in the earth's shadow,  

DLR